Wenatchee, WA

7:44 PM PDT on April 25, 2017 (GMT -0700)
Pangborn Memorial

Weather History for KEAT - July, 2013

Change the Weather History Date:

Saturday, July 6, 2013

  Actual Average Record
Temperature  
Mean Temperature 65 °F 64 °F  
Max Temperature 82 °F 80 °F 104 °F (1968)
Min Temperature 48 °F 50 °F 46 °F (1971)
Degree Days  
Heating Degree Days 0 3  
Month to date heating degree days 1 19  
Since 1 June heating degree days 194 206  
Since 1 July heating degree days 1 19  
Cooling Degree Days 0 2  
Month to date cooling degree days 40 12  
Year to date cooling degree days 63 36  
Since 1 June cooling degree days 59 31  
Growing Degree Days 25 (Base 50)    
Moisture  
Dew Point 44 °F    
Average Humidity 36    
Maximum Humidity 56    
Minimum Humidity 17    
Precipitation  
Precipitation 0.00 in 0.02 in 0.13 in (1993)
Month to date precipitation 0.00 0.18  
Year to date precipitation 7.75 9.56  
Snow  
Snow 0.00 in 0.00 in - ()
Month to date snowfall 0.0 0.0  
Since 1 June snowfall 0.0 0.0  
Since 1 July snowfall 0.0 0.0  
Snow Depth 0.00 in    
Sea Level Pressure  
Sea Level Pressure 29.82 in    
Wind  
Wind Speed 10 mph (NW)    
Max Wind Speed 15 mph    
Max Gust Speed 20 mph    
Visibility 10 miles    
Events      
T = Trace of Precipitation, MM = Missing Value Source: NWS Daily Summary

Daily Weather History Graph

Daily Weather History Graph

Search for Another Location

Airport or City:

Trip Planner

Search our weather history database for the weather conditions in past years. The results will help you decide how hot, cold, wet, or windy it might be!

Date:

Astronomy

Jul. 06, 2013 Rise Set
Actual Time 5:11 AM PDT 8:59 PM PDT
Civil Twilight 4:32 AM PDT 9:38 PM PDT
Nautical Twilight 3:38 AM PDT 10:32 PM PDT
Astronomical Twilight 2:19 AM PDT 11:50 PM PDT
Moon 4:05 AM PDT (7/6) 7:40 PM PDT (7/6)
Length of Visible Light 17h 06m
Length of Day
15h 47m
Waning Crescent, 2% of the Moon is Illuminated
Jul 6
Waning Crescent
Jul 8
New
Jul 15
First Quarter
Jul 22
Full
Jul 29
Last Quarter

Hourly Weather History & Observations

Time (PDT) Temp. Dew Point Humidity Pressure Visibility Wind Dir Wind Speed Gust Speed Precip Events Conditions
12:55 AM 64.9 °F 45.0 °F 48% 29.86 in 10.0 mi NW 11.5 mph - N/A   Clear
1:55 AM 64.0 °F 45.0 °F 50% 29.86 in 10.0 mi NNW 13.8 mph - N/A   Clear
2:55 AM 63.0 °F 45.0 °F 52% 29.86 in 10.0 mi NNW 12.7 mph - N/A   Clear
3:55 AM 63.0 °F 45.0 °F 52% 29.86 in 10.0 mi NNW 15.0 mph - N/A   Clear
4:55 AM 62.1 °F 45.0 °F 53% 29.87 in 10.0 mi NNW 12.7 mph - N/A   Clear
5:55 AM 62.1 °F 46.0 °F 56% 29.87 in 10.0 mi NNW 13.8 mph - N/A   Clear
6:55 AM 64.0 °F 46.0 °F 52% 29.88 in 10.0 mi NNW 11.5 mph 19.6 mph N/A   Clear
7:55 AM 66.0 °F 46.0 °F 48% 29.89 in 10.0 mi NNW 11.5 mph - N/A   Clear
8:55 AM 69.1 °F 46.0 °F 44% 29.89 in 10.0 mi NW 13.8 mph - N/A   Clear
9:55 AM 72.0 °F 46.9 °F 41% 29.88 in 10.0 mi WNW 9.2 mph - N/A   Clear
10:55 AM 75.9 °F 46.9 °F 36% 29.86 in 10.0 mi WNW 10.4 mph - N/A   Clear
11:55 AM 79.0 °F 44.1 °F 29% 29.84 in 10.0 mi WNW 8.1 mph - N/A   Clear
12:55 PM 82.0 °F 43.0 °F 25% 29.83 in 10.0 mi North - - N/A   Clear
1:55 PM 84.9 °F 42.1 °F 22% 29.81 in 10.0 mi SSW 9.2 mph - N/A   Clear
2:55 PM 86.0 °F 39.0 °F 19% 29.79 in 10.0 mi West 6.9 mph - N/A   Clear
3:55 PM 87.1 °F 39.0 °F 18% 29.77 in 10.0 mi Variable 4.6 mph - N/A   Clear
4:55 PM 88.0 °F 37.9 °F 17% 29.76 in 10.0 mi Variable 4.6 mph - N/A   Clear
5:55 PM 88.0 °F 39.0 °F 18% 29.74 in 10.0 mi South 6.9 mph - N/A   Clear
6:55 PM 86.0 °F 44.1 °F 23% 29.74 in 10.0 mi ESE 6.9 mph - N/A   Clear
7:55 PM 82.9 °F 46.0 °F 27% 29.75 in 10.0 mi ESE 5.8 mph - N/A   Clear
8:55 PM 79.0 °F 46.0 °F 31% 29.75 in 10.0 mi ESE 6.9 mph - N/A   Clear
9:55 PM 79.0 °F 45.0 °F 30% 29.77 in 10.0 mi Calm Calm - N/A   Clear
10:55 PM 75.9 °F 46.9 °F 36% 29.78 in 10.0 mi NNW 6.9 mph - N/A   Scattered Clouds
11:55 PM 77.0 °F 46.9 °F 34% 29.80 in 10.0 mi WNW 3.5 mph - N/A   Mostly Cloudy